Weather in Laval

France     48°03′16″N   0°45′25″E
temp.,
°C
wind,
m/s
gust,
m/s
humid.,
%
clouds,
%
prec.,
mm/h
press.,
hPa
HPBL,
m
18 may, tue
tue1823:00+8wsw411966 0.4 1017266
02:00+7wsw41197100 0.4 1017272
05:00+6w37977 0.0 1017169
08:00+7wsw25955 0.0 1018156
11:00+12w457013 0.0 10181079
14:00+16w355031 0.0 10172014
17:00+16wsw3555100 0.1 10171630
20:00+14w487016 0.3 1018404
19 may, wed
wed1923:00+8wsw4109259 0.3 1020237
02:00+8sw41096100 0.3 1020269
05:00+8sw4109833 1.1 1019332
08:00+8w48955 1.1 1020262
11:00+13wnw68694 0.0 10211242
14:00+15wnw795347 0.4 10222222
17:00+15nw795390 0.0 10221884
20:00+12nw5966100 0.0 1024730
20 may, thu
thu2023:00+7nw3490100 0.0 102672
02:00+6wnw229297 0.0 102621
05:00+6w1192100 0.0 102610
08:00+8s2587100 0.0 1025158
11:00+12s4571100 0.0 1024634
14:00+14ssw5760100 0.0 10231388
17:00+14ssw5970100 0.1 10211060
20:00+14sw61164100 0.1 1019903
21 may, fri
fri2123:00+9ssw51392100 1.1 1018559
02:00+9ssw41295100 4.7 1016548
05:00+9ssw41097100 4.2 1013389
08:00+11sw61093100 5.2 1012812
11:00+10sw61190100 0.8 1012653
14:00+14sw71069100 1.0 10091664
17:00+13sw91376100 0.5 10091345
20:00+12sw8127595 0.8 10071065
22 may, sat
sat2223:00+9sw8148117 0.0 1008884
02:00+9sw8158584 0.0 10071019
05:00+10sw91678100 0.1 10061382
08:00+10sw8139288 1.3 1007729
11:00+12w8108272 1.3 10081085
14:00+12w698387 2.8 10101007
17:00+13wnw7107165 1.3 10111476
20:00+11nw596749 1.7 1013878